Flag for India Weather past 2 weeks in Nagaur, Rajasthan, India

Now
95 °F

Passing clouds.


Feels Like: 93 °F
Forecast: 82 / 107 °F
Wind: 9 mph from Northeast

Location: Jaipur / Sanganer

Current Time: May 29, 2015 at 10:02:04 AM

Latest Report: May 29, 2015 at 9:00 AM


Visibility: 2 mi

Pressure: 29.74 "Hg

Humidity: 25%

Dew point: 54 °F

Location of NagaurLocation

Historic Weather in Nagaur — Graph

°F

Nagaur temperature yesterday

Maximum temperature yesterday: 109 °F (at 2:00 PM)
Minimum temperature yesterday: 84 °F (at 6:00 AM)
Average temperature yesterday: 100 °F

Past Weeks' High & Low Weather Summary

 TemperatureHumidityPressure
High111 °F (May 18, 3:00 PM)54% (May 15, 5:00 AM)29.89 "Hg (May 15, 5:00 AM)
Low77 °F (May 15, 5:00 AM)2% (May 27, 3:00 PM)29.53 "Hg (May 23, 3:00 PM)
Average96 °F25%29.68 "Hg
* Reported May 14 7:30 AM — May 29 8:00 AM, Nagaur, Weather by CustomWeather, © 2015

Note: Actual official high and low records may vary slightly from our data, if they occured in-between our weather recording intervals... More about our weather records

Advertising

Nagaur weather history for previous 24 hours

 ConditionsComfort  
Time TempWeatherWind HumidityBarometerVisibility
8:00 AM
Fri, May 29
91 °FPassing clouds.12 mph28%29.74 "Hg2 mi
7:00 AM93 °FHaze.5 mph28%29.71 "Hg2 mi
6:00 AM91 °FHaze.5 mph30%29.68 "Hg2 mi
5:00 AM90 °FHaze.No wind33%29.65 "Hg2 mi
2:30 AM90 °FHaze.No wind31%29.65 "Hg2 mi
1:00 AM91 °FHaze.2 mph30%29.65 "Hg2 mi
12:00 AM95 °FHaze.No wind25%29.65 "Hg2 mi
11:30 PM
Thu, May 28
95 °FHaze.2 mph26%29.65 "Hg2 mi
11:00 PM95 °FHaze.1 mph25%29.65 "Hg2 mi
10:00 PM99 °FHaze.3 mph21%29.65 "Hg2 mi
9:00 PM100 °FHaze.3 mph18%29.62 "Hg2 mi
8:00 PM102 °FHaze.7 mph17%29.62 "Hg2 mi
7:00 PM104 °FHaze.7 mph15%29.59 "Hg2 mi
6:30 PM106 °FHaze.5 mph14%29.59 "Hg2 mi
6:00 PM106 °FLow level haze.9 mph13%29.59 "Hg2 mi
5:00 PM108 °FLow level haze.14 mph11%29.59 "Hg2 mi
4:00 PM109 °FLow level haze.14 mph7%29.59 "Hg2 mi
3:00 PM108 °FPassing clouds.9 mph14%29.62 "Hg2 mi
2:00 PM109 °FDuststorm.12 mph11%29.62 "Hg2 mi
1:00 PM106 °FHaze.12 mph14%29.65 "Hg2 mi
12:00 PM104 °FHaze.13 mph17%29.68 "Hg2 mi
10:00 AM95 °FDuststorm.9 mph28%29.71 "Hg1 mi
Weather by CustomWeather, © 2015

See weather overviewHow to use our weather pages